TimePDT,TemperatureF,Dew PointF,Humidity,Sea Level PressureIn,VisibilityMPH,Wind Direction,Wind SpeedMPH,Gust SpeedMPH,PrecipitationIn,Events,Conditions,WindDirDegrees,DateUTC
12:56 AM,62.1,41.0,46,29.84,10.0,SE,6.9,-,N/A,,Overcast,140,2012-10-11 07:56:00
1:56 AM,59.0,39.9,49,29.85,10.0,Calm,Calm,-,N/A,,Scattered Clouds,0,2012-10-11 08:56:00
2:56 AM,55.9,39.9,55,29.85,10.0,SSE,4.6,-,N/A,,Partly Cloudy,150,2012-10-11 09:56:00
3:56 AM,53.1,37.9,57,29.85,10.0,ESE,5.8,-,N/A,,Partly Cloudy,120,2012-10-11 10:56:00
4:56 AM,55.0,37.9,53,29.84,10.0,East,3.5,-,N/A,,Mostly Cloudy,90,2012-10-11 11:56:00
5:56 AM,53.1,39.0,59,29.83,10.0,Calm,Calm,-,N/A,,Mostly Cloudy,0,2012-10-11 12:56:00
6:16 AM,51.8,39.2,62,29.88,10.0,NNE,6.9,-,N/A,,Scattered Clouds,30,2012-10-11 13:16:00
6:56 AM,46.9,37.9,71,29.83,10.0,Calm,Calm,-,N/A,,Scattered Clouds,0,2012-10-11 13:56:00
7:56 AM,51.1,37.9,61,29.84,10.0,Calm,Calm,-,N/A,,Mostly Cloudy,0,2012-10-11 14:56:00
8:56 AM,55.0,41.0,59,29.85,10.0,Calm,Calm,-,N/A,,Overcast,0,2012-10-11 15:56:00
9:56 AM,57.9,39.0,49,29.86,10.0,South,4.6,-,N/A,,Overcast,180,2012-10-11 16:56:00
10:56 AM,60.1,41.0,49,29.86,10.0,South,4.6,-,N/A,,Overcast,190,2012-10-11 17:56:00
11:22 AM,60.8,44.6,55,29.94,10.0,South,11.5,-,0.00,Rain,Light Rain,170,2012-10-11 18:22:00
11:56 AM,60.1,46.9,62,29.85,10.0,South,19.6,-,0.00,Rain,Light Rain,180,2012-10-11 18:56:00
12:13 PM,60.8,46.4,59,29.92,10.0,South,18.4,-,0.00,,Overcast,190,2012-10-11 19:13:00
12:56 PM,61.0,45.0,56,29.84,10.0,South,13.8,-,0.00,,Mostly Cloudy,180,2012-10-11 19:56:00
1:56 PM,66.9,44.1,44,29.82,10.0,South,11.5,18.4,N/A,,Mostly Cloudy,190,2012-10-11 20:56:00
2:56 PM,66.0,44.1,45,29.82,10.0,SSW,13.8,-,N/A,,Mostly Cloudy,210,2012-10-11 21:56:00
3:56 PM,64.9,44.1,47,29.81,10.0,SSW,8.1,-,N/A,,Mostly Cloudy,200,2012-10-11 22:56:00
4:56 PM,64.9,45.0,48,29.81,10.0,SSW,10.4,-,N/A,,Mostly Cloudy,200,2012-10-11 23:56:00
5:56 PM,64.0,44.1,48,29.80,10.0,South,8.1,-,N/A,,Mostly Cloudy,190,2012-10-12 00:56:00
6:56 PM,62.1,44.1,52,29.81,10.0,Calm,Calm,-,N/A,,Scattered Clouds,0,2012-10-12 01:56:00
7:17 PM,60.8,46.4,59,29.88,10.0,South,4.6,-,0.00,Rain,Light Rain,180,2012-10-12 02:17:00
7:49 PM,60.8,46.4,59,29.89,10.0,Calm,Calm,-,0.00,,Mostly Cloudy,0,2012-10-12 02:49:00
7:56 PM,60.1,46.0,60,29.82,10.0,Calm,Calm,-,0.00,,Mostly Cloudy,0,2012-10-12 02:56:00
8:56 PM,60.1,46.0,60,29.82,10.0,Calm,Calm,-,0.00,Rain,Light Rain,0,2012-10-12 03:56:00
9:56 PM,57.0,46.9,69,29.82,10.0,East,3.5,-,0.00,,Mostly Cloudy,100,2012-10-12 04:56:00
10:56 PM,57.0,46.9,69,29.83,10.0,South,5.8,-,N/A,,Mostly Cloudy,170,2012-10-12 05:56:00
11:56 PM,55.0,46.9,74,29.84,10.0,SSE,9.2,-,0.00,Rain,Light Rain,160,2012-10-12 06:56:00